Year,Month,Day,Hour,Minute,Value (Times are PST for windgust in km/hr)
2008,12,29,00,00,0.00
2008,12,29,00,01,0.00
2008,12,29,00,02,0.00
2008,12,29,00,03,0.00
2008,12,29,00,04,0.00
2008,12,29,00,05,0.00
2008,12,29,00,06,0.00
2008,12,29,00,07,0.00
2008,12,29,00,08,0.00
2008,12,29,00,09,0.00
2008,12,29,00,10,0.00
2008,12,29,00,11,0.00
2008,12,29,00,12,0.00
2008,12,29,01,08,3.20
2008,12,29,01,09,1.60
2008,12,29,01,10,0.00
2008,12,29,01,11,0.00
2008,12,29,01,12,0.00
2008,12,29,01,13,0.00
2008,12,29,01,14,0.00
2008,12,29,01,15,0.00
2008,12,29,01,16,0.00
2008,12,29,01,17,1.60
2008,12,29,01,18,1.60
2008,12,29,01,19,1.60
2008,12,29,01,20,0.00
2008,12,29,01,21,0.00
2008,12,29,01,22,0.00
2008,12,29,01,23,1.60
2008,12,29,01,24,0.00
2008,12,29,01,25,0.00
2008,12,29,01,26,0.00
2008,12,29,01,27,0.00
2008,12,29,01,28,0.00
2008,12,29,01,29,0.00
2008,12,29,01,30,0.00
2008,12,29,01,31,0.00
2008,12,29,01,32,0.00
2008,12,29,01,33,0.00
2008,12,29,01,34,0.00
2008,12,29,01,35,0.00
2008,12,29,01,36,0.00
2008,12,29,01,37,0.00
2008,12,29,01,38,0.00
2008,12,29,01,39,0.00
2008,12,29,01,40,4.80
2008,12,29,01,41,3.20
2008,12,29,01,42,0.00
2008,12,29,01,43,0.00
2008,12,29,01,44,0.00
2008,12,29,01,45,0.00
2008,12,29,01,46,0.00
2008,12,29,01,47,0.00
2008,12,29,01,48,0.00
2008,12,29,01,49,0.00
2008,12,29,01,50,0.00
2008,12,29,01,51,0.00
2008,12,29,01,52,0.00
2008,12,29,01,53,0.00
2008,12,29,01,54,0.00
2008,12,29,01,55,0.00
2008,12,29,01,56,0.00
2008,12,29,01,57,0.00
2008,12,29,01,58,0.00
2008,12,29,01,59,0.00
2008,12,29,02,00,0.00
2008,12,29,02,01,0.00
2008,12,29,02,02,0.00
2008,12,29,02,03,0.00
2008,12,29,02,04,0.00
2008,12,29,02,05,0.00
2008,12,29,02,06,0.00
2008,12,29,02,07,0.00
2008,12,29,02,08,0.00
2008,12,29,02,09,1.60
2008,12,29,02,10,1.60
2008,12,29,02,11,1.60
2008,12,29,02,12,0.00
2008,12,29,02,13,0.00
2008,12,29,02,14,0.00
2008,12,29,02,15,0.00
2008,12,29,02,16,3.20
2008,12,29,02,17,1.60
2008,12,29,02,18,0.00
2008,12,29,02,19,0.00
2008,12,29,02,20,0.00
2008,12,29,02,21,1.60
2008,12,29,02,22,1.60
2008,12,29,02,23,0.00
2008,12,29,02,24,0.00
2008,12,29,02,25,0.00
2008,12,29,02,26,3.20
2008,12,29,02,27,3.20
2008,12,29,02,28,0.00
2008,12,29,02,29,0.00
2008,12,29,02,30,0.00
2008,12,29,02,31,0.00
2008,12,29,02,32,0.00
2008,12,29,02,33,0.00
2008,12,29,02,34,0.00
2008,12,29,02,35,0.00
2008,12,29,02,36,0.00
2008,12,29,02,37,0.00
2008,12,29,02,38,0.00
2008,12,29,02,39,0.00
2008,12,29,02,40,0.00
2008,12,29,02,41,0.00
2008,12,29,02,42,0.00
2008,12,29,02,43,0.00
2008,12,29,02,44,0.00
2008,12,29,02,45,0.00
2008,12,29,02,46,0.00
2008,12,29,02,47,0.00
2008,12,29,02,48,0.00
2008,12,29,02,49,0.00
2008,12,29,02,50,0.00
2008,12,29,02,51,0.00
2008,12,29,02,52,3.20
2008,12,29,02,53,1.60
2008,12,29,02,54,0.00
2008,12,29,02,55,0.00
2008,12,29,02,56,0.00
2008,12,29,02,57,1.60
2008,12,29,02,58,0.00
2008,12,29,02,59,0.00
2008,12,29,03,00,0.00
2008,12,29,03,01,1.60
2008,12,29,03,02,0.00
2008,12,29,03,03,0.00
2008,12,29,03,04,0.00
2008,12,29,03,05,0.00
2008,12,29,03,06,0.00
2008,12,29,03,07,0.00
2008,12,29,03,08,0.00
2008,12,29,03,09,0.00
2008,12,29,03,10,0.00
2008,12,29,03,11,0.00
2008,12,29,03,12,0.00
2008,12,29,03,13,0.00
2008,12,29,03,14,0.00
2008,12,29,03,15,0.00
2008,12,29,03,16,0.00
2008,12,29,03,17,0.00
2008,12,29,03,18,0.00
2008,12,29,03,19,0.00
2008,12,29,03,20,0.00
2008,12,29,03,21,3.20
2008,12,29,03,22,6.40
2008,12,29,03,23,4.80
2008,12,29,03,24,1.60
2008,12,29,03,25,1.60
2008,12,29,03,26,0.00
2008,12,29,03,27,0.00
2008,12,29,03,28,0.00
2008,12,29,03,29,0.00
2008,12,29,03,30,3.20
2008,12,29,03,31,4.80
2008,12,29,03,32,3.20
2008,12,29,03,33,4.80
2008,12,29,03,34,3.20
2008,12,29,03,35,1.60
2008,12,29,03,36,8.10
2008,12,29,03,37,6.40
2008,12,29,03,38,6.40
2008,12,29,03,39,1.60
2008,12,29,03,40,1.60
2008,12,29,03,41,1.60
2008,12,29,03,42,9.60
2008,12,29,03,43,8.10
2008,12,29,03,44,3.20
2008,12,29,03,45,3.20
2008,12,29,03,46,0.00
2008,12,29,03,47,0.00
2008,12,29,03,48,9.60
2008,12,29,03,49,4.80
2008,12,29,03,50,0.00
2008,12,29,03,51,0.00
2008,12,29,03,52,0.00
2008,12,29,03,53,0.00
2008,12,29,03,54,1.60
2008,12,29,03,55,8.10
2008,12,29,03,56,3.20
2008,12,29,03,57,3.20
2008,12,29,03,58,3.20
2008,12,29,03,59,0.00
2008,12,29,04,00,0.00
2008,12,29,04,01,0.00
2008,12,29,04,02,1.60
2008,12,29,04,03,1.60
2008,12,29,04,04,0.00
2008,12,29,04,05,3.20
2008,12,29,04,06,1.60
2008,12,29,04,07,1.60
2008,12,29,04,08,1.60
2008,12,29,04,09,0.00
2008,12,29,04,10,1.60
2008,12,29,04,11,0.00
2008,12,29,04,12,0.00
2008,12,29,04,13,0.00
2008,12,29,04,14,0.00
2008,12,29,04,15,0.00
2008,12,29,04,16,0.00
2008,12,29,04,17,0.00
2008,12,29,04,18,0.00
2008,12,29,04,19,0.00
2008,12,29,04,20,0.00
2008,12,29,04,21,0.00
2008,12,29,04,22,0.00
2008,12,29,04,23,0.00
2008,12,29,04,24,0.00
2008,12,29,04,25,0.00
2008,12,29,04,26,0.00
2008,12,29,04,27,0.00
2008,12,29,04,28,0.00
2008,12,29,04,29,0.00
2008,12,29,04,30,0.00
2008,12,29,04,31,0.00
2008,12,29,04,32,0.00
2008,12,29,04,33,0.00
2008,12,29,04,34,0.00
2008,12,29,04,35,0.00
2008,12,29,04,36,0.00
2008,12,29,04,37,0.00
2008,12,29,04,38,0.00
2008,12,29,04,39,0.00
2008,12,29,04,40,0.00
2008,12,29,04,41,0.00
2008,12,29,04,42,0.00
2008,12,29,04,43,0.00
2008,12,29,04,44,0.00
2008,12,29,04,45,0.00
2008,12,29,04,46,0.00
2008,12,29,04,47,0.00
2008,12,29,04,48,0.00
2008,12,29,04,49,0.00
2008,12,29,04,50,0.00
2008,12,29,04,51,0.00
2008,12,29,04,52,0.00
2008,12,29,04,53,0.00
2008,12,29,04,54,0.00
2008,12,29,04,55,0.00
2008,12,29,04,56,0.00
2008,12,29,04,57,0.00
2008,12,29,04,58,0.00
2008,12,29,04,59,0.00
2008,12,29,05,00,0.00
2008,12,29,05,01,0.00
2008,12,29,05,02,0.00
2008,12,29,05,03,0.00
2008,12,29,05,04,0.00
2008,12,29,05,05,0.00
2008,12,29,05,06,0.00
2008,12,29,05,07,0.00
2008,12,29,05,08,0.00
2008,12,29,05,09,0.00
2008,12,29,05,10,0.00
2008,12,29,05,11,0.00
2008,12,29,05,12,0.00
2008,12,29,05,13,0.00
2008,12,29,05,14,0.00
2008,12,29,05,15,0.00
2008,12,29,05,16,0.00
2008,12,29,05,17,0.00
2008,12,29,05,18,0.00
2008,12,29,05,19,0.00
2008,12,29,05,20,0.00
2008,12,29,05,21,0.00
2008,12,29,05,22,0.00
2008,12,29,05,23,0.00
2008,12,29,05,24,0.00
2008,12,29,05,25,0.00
2008,12,29,05,26,0.00
2008,12,29,05,27,0.00
2008,12,29,05,28,0.00
2008,12,29,05,29,0.00
2008,12,29,05,30,0.00
2008,12,29,05,31,0.00
2008,12,29,05,32,0.00
2008,12,29,05,33,0.00
2008,12,29,05,34,0.00
2008,12,29,05,35,0.00
2008,12,29,05,36,0.00
2008,12,29,05,37,0.00
2008,12,29,05,38,0.00
2008,12,29,05,39,0.00
2008,12,29,05,40,0.00
2008,12,29,05,41,0.00
2008,12,29,05,42,0.00
2008,12,29,05,43,0.00
2008,12,29,05,44,0.00
2008,12,29,05,45,0.00
2008,12,29,05,46,0.00
2008,12,29,05,47,0.00
2008,12,29,05,48,0.00
2008,12,29,05,49,0.00
2008,12,29,05,50,0.00
2008,12,29,05,51,0.00
2008,12,29,05,52,0.00
2008,12,29,05,53,0.00
2008,12,29,05,54,0.00
2008,12,29,05,55,0.00
2008,12,29,05,56,0.00
2008,12,29,05,57,0.00
2008,12,29,05,58,0.00
2008,12,29,05,59,0.00
2008,12,29,06,00,0.00
2008,12,29,06,01,0.00
2008,12,29,06,02,0.00
2008,12,29,06,03,0.00
2008,12,29,06,04,0.00
2008,12,29,06,05,0.00
2008,12,29,06,06,0.00
2008,12,29,06,07,0.00
2008,12,29,06,08,0.00
2008,12,29,06,09,0.00
2008,12,29,06,10,0.00
2008,12,29,06,11,0.00
2008,12,29,06,12,0.00
2008,12,29,06,13,0.00
2008,12,29,06,14,1.60
2008,12,29,06,15,1.60
2008,12,29,06,16,1.60
2008,12,29,06,17,0.00
2008,12,29,06,18,1.60
2008,12,29,06,19,0.00
2008,12,29,06,20,1.60
2008,12,29,06,21,1.60
2008,12,29,06,22,0.00
2008,12,29,06,23,0.00
2008,12,29,06,24,0.00
2008,12,29,06,25,1.60
2008,12,29,06,26,0.00
2008,12,29,06,27,0.00
2008,12,29,06,28,0.00
2008,12,29,06,29,0.00
2008,12,29,06,30,0.00
2008,12,29,06,31,1.60
2008,12,29,06,32,1.60
2008,12,29,06,33,0.00
2008,12,29,06,34,0.00
2008,12,29,06,35,0.00
2008,12,29,06,36,0.00
2008,12,29,06,37,0.00
2008,12,29,06,38,0.00
2008,12,29,06,39,1.60
2008,12,29,06,40,0.00
2008,12,29,06,41,1.60
2008,12,29,06,42,0.00
2008,12,29,06,43,0.00
2008,12,29,06,44,0.00
2008,12,29,06,45,0.00
2008,12,29,06,46,0.00
2008,12,29,06,47,0.00
2008,12,29,06,48,0.00
2008,12,29,06,49,0.00
2008,12,29,06,50,0.00
2008,12,29,06,51,0.00
2008,12,29,06,52,0.00
2008,12,29,06,53,0.00
2008,12,29,06,54,0.00
2008,12,29,06,55,0.00
2008,12,29,06,56,0.00
2008,12,29,06,57,0.00
2008,12,29,06,58,0.00
2008,12,29,06,59,0.00
2008,12,29,07,00,0.00
2008,12,29,07,01,0.00
2008,12,29,07,02,0.00
2008,12,29,07,03,0.00
2008,12,29,07,04,0.00
2008,12,29,07,05,0.00
2008,12,29,07,06,0.00
2008,12,29,07,07,0.00
2008,12,29,07,08,0.00
2008,12,29,07,09,0.00
2008,12,29,07,10,0.00
2008,12,29,07,11,0.00
2008,12,29,07,12,0.00
2008,12,29,07,13,0.00
2008,12,29,07,14,0.00
2008,12,29,07,15,0.00
2008,12,29,07,16,1.60
2008,12,29,07,17,0.00
2008,12,29,07,18,0.00
2008,12,29,07,19,0.00
2008,12,29,07,20,0.00
2008,12,29,07,21,0.00
2008,12,29,07,22,0.00
2008,12,29,07,23,0.00
2008,12,29,07,24,0.00
2008,12,29,07,25,0.00
2008,12,29,07,26,0.00
2008,12,29,07,27,0.00
2008,12,29,07,28,0.00
2008,12,29,07,29,0.00
2008,12,29,07,30,0.00
2008,12,29,07,31,0.00
2008,12,29,07,32,0.00
2008,12,29,07,33,0.00
2008,12,29,07,34,0.00
2008,12,29,07,35,0.00
2008,12,29,07,36,0.00
2008,12,29,07,37,0.00
2008,12,29,07,38,1.60
2008,12,29,07,39,1.60
2008,12,29,07,40,1.60
2008,12,29,07,41,0.00
2008,12,29,07,42,0.00
2008,12,29,07,43,0.00
2008,12,29,07,44,0.00
2008,12,29,07,45,0.00
2008,12,29,07,46,0.00
2008,12,29,07,47,0.00
2008,12,29,07,48,0.00
2008,12,29,07,49,0.00
2008,12,29,07,50,0.00
2008,12,29,07,51,0.00
2008,12,29,07,52,0.00
2008,12,29,07,53,0.00
2008,12,29,07,54,0.00
2008,12,29,07,55,0.00
2008,12,29,07,56,0.00
2008,12,29,07,57,0.00
2008,12,29,07,58,0.00
2008,12,29,07,59,0.00
2008,12,29,08,00,0.00
2008,12,29,08,01,0.00
2008,12,29,08,02,0.00
2008,12,29,08,03,1.60
2008,12,29,08,04,0.00
2008,12,29,08,05,0.00
2008,12,29,08,06,0.00
2008,12,29,08,07,1.60
2008,12,29,08,08,0.00
2008,12,29,08,09,1.60
2008,12,29,08,10,4.80
2008,12,29,08,11,1.60
2008,12,29,08,12,0.00
2008,12,29,08,13,0.00
2008,12,29,08,14,0.00
2008,12,29,08,15,1.60
2008,12,29,08,16,1.60
2008,12,29,08,17,1.60
2008,12,29,08,18,0.00
2008,12,29,08,19,0.00
2008,12,29,08,20,0.00
2008,12,29,08,21,0.00
2008,12,29,08,22,0.00
2008,12,29,08,23,1.60
2008,12,29,08,24,0.00
2008,12,29,08,25,0.00
2008,12,29,08,26,0.00
2008,12,29,08,27,1.60
2008,12,29,08,28,0.00
2008,12,29,08,29,0.00
2008,12,29,08,30,0.00
2008,12,29,08,31,0.00
2008,12,29,08,32,0.00
2008,12,29,08,33,0.00
2008,12,29,08,34,0.00
2008,12,29,08,35,0.00
2008,12,29,08,36,0.00
2008,12,29,08,37,0.00
2008,12,29,08,38,0.00
2008,12,29,08,39,0.00
2008,12,29,08,40,0.00
2008,12,29,08,41,0.00
2008,12,29,08,42,0.00
2008,12,29,08,43,0.00
2008,12,29,08,44,0.00
2008,12,29,08,45,0.00
2008,12,29,08,46,0.00
2008,12,29,08,47,0.00
2008,12,29,08,48,0.00
2008,12,29,08,49,0.00
2008,12,29,08,50,0.00
2008,12,29,08,51,0.00
2008,12,29,08,52,0.00
2008,12,29,08,53,0.00
2008,12,29,08,54,0.00
2008,12,29,08,55,0.00
2008,12,29,08,56,0.00
2008,12,29,08,57,0.00
2008,12,29,08,58,1.60
2008,12,29,08,59,0.00
2008,12,29,09,00,0.00
2008,12,29,09,01,0.00
2008,12,29,09,02,0.00
2008,12,29,09,03,0.00
2008,12,29,09,04,0.00
2008,12,29,09,05,0.00
2008,12,29,09,06,0.00
2008,12,29,09,07,0.00
2008,12,29,09,08,0.00
2008,12,29,09,09,0.00
2008,12,29,09,10,0.00
2008,12,29,09,11,0.00
2008,12,29,09,12,0.00
2008,12,29,09,13,0.00
2008,12,29,09,14,0.00
2008,12,29,09,15,0.00
2008,12,29,09,16,0.00
2008,12,29,09,17,0.00
2008,12,29,09,18,0.00
2008,12,29,09,19,0.00
2008,12,29,09,20,0.00
2008,12,29,09,21,0.00
2008,12,29,09,22,0.00
2008,12,29,09,23,0.00
2008,12,29,09,24,0.00
2008,12,29,09,25,0.00
2008,12,29,09,26,0.00
2008,12,29,09,27,0.00
2008,12,29,09,28,0.00
2008,12,29,09,29,0.00
2008,12,29,09,30,0.00
2008,12,29,09,31,0.00
2008,12,29,09,32,0.00
2008,12,29,09,33,0.00
2008,12,29,09,34,0.00
2008,12,29,09,35,0.00
2008,12,29,09,36,0.00
2008,12,29,09,37,0.00
2008,12,29,09,38,1.60
2008,12,29,09,39,1.60
2008,12,29,09,40,4.80
2008,12,29,09,41,3.20
2008,12,29,09,42,1.60
2008,12,29,09,43,3.20
2008,12,29,09,44,0.00
2008,12,29,09,45,0.00
2008,12,29,09,46,0.00
2008,12,29,09,47,0.00
2008,12,29,09,48,0.00
2008,12,29,09,49,0.00
2008,12,29,09,50,0.00
2008,12,29,09,51,0.00
2008,12,29,09,52,0.00
2008,12,29,09,53,0.00
2008,12,29,09,54,1.60
2008,12,29,09,55,0.00
2008,12,29,09,56,0.00
2008,12,29,09,57,0.00
2008,12,29,09,58,1.60
2008,12,29,09,59,1.60
2008,12,29,10,00,1.60
2008,12,29,10,01,3.20
2008,12,29,10,02,3.20
2008,12,29,10,03,1.60
2008,12,29,10,04,1.60
2008,12,29,10,05,0.00
2008,12,29,10,06,0.00
2008,12,29,10,07,0.00
2008,12,29,10,08,0.00
2008,12,29,10,09,0.00
2008,12,29,10,10,0.00
2008,12,29,10,11,0.00
2008,12,29,10,12,0.00
2008,12,29,10,13,0.00
2008,12,29,10,14,0.00
2008,12,29,10,15,0.00
2008,12,29,10,16,0.00
2008,12,29,10,17,0.00
2008,12,29,10,18,0.00
2008,12,29,10,19,0.00
2008,12,29,10,20,0.00
2008,12,29,10,21,0.00
2008,12,29,10,22,0.00
2008,12,29,10,23,0.00
2008,12,29,10,24,0.00
2008,12,29,10,25,0.00
2008,12,29,10,26,0.00
2008,12,29,10,27,0.00
2008,12,29,10,28,0.00
2008,12,29,10,29,0.00
2008,12,29,10,30,0.00
2008,12,29,10,31,0.00
2008,12,29,10,32,0.00
2008,12,29,10,33,0.00
2008,12,29,10,34,0.00
2008,12,29,10,35,0.00
2008,12,29,10,36,0.00
2008,12,29,10,37,0.00
2008,12,29,10,38,0.00
2008,12,29,10,39,0.00
2008,12,29,10,40,0.00
2008,12,29,10,41,0.00
2008,12,29,10,42,1.60
2008,12,29,10,43,1.60
2008,12,29,10,44,0.00
2008,12,29,10,45,0.00
2008,12,29,10,46,0.00
2008,12,29,10,47,0.00
2008,12,29,10,48,0.00
2008,12,29,10,49,0.00
2008,12,29,10,50,0.00
2008,12,29,10,51,0.00
2008,12,29,10,52,0.00
2008,12,29,10,53,1.60
2008,12,29,10,54,3.20
2008,12,29,10,55,3.20
2008,12,29,10,56,6.40
2008,12,29,10,57,4.80
2008,12,29,10,58,4.80
2008,12,29,10,59,1.60
2008,12,29,11,00,0.00
2008,12,29,11,01,1.60
2008,12,29,11,02,0.00
2008,12,29,11,03,0.00
2008,12,29,11,04,0.00
2008,12,29,11,05,4.80
2008,12,29,11,06,1.60
2008,12,29,11,07,4.80
2008,12,29,11,08,8.10
2008,12,29,11,09,9.60
2008,12,29,11,10,6.40
2008,12,29,11,11,4.80
2008,12,29,11,12,1.60
2008,12,29,11,13,1.60
2008,12,29,11,14,4.80
2008,12,29,11,15,3.20
2008,12,29,11,16,4.80
2008,12,29,11,17,14.50
2008,12,29,11,18,14.50
2008,12,29,11,19,16.10
2008,12,29,11,20,16.10
2008,12,29,11,21,16.10
2008,12,29,11,22,16.10
2008,12,29,11,23,16.10
2008,12,29,11,24,16.10
2008,12,29,11,25,19.30
2008,12,29,11,26,25.70
2008,12,29,11,27,25.70
2008,12,29,11,28,30.60
2008,12,29,11,29,24.20
2008,12,29,11,30,22.50
2008,12,29,11,31,29.00
2008,12,29,11,32,35.40
2008,12,29,11,33,33.80
2008,12,29,11,34,27.40
2008,12,29,11,35,43.50
2008,12,29,11,36,24.20
2008,12,29,11,37,24.20
2008,12,29,11,38,41.80
2008,12,29,11,39,35.40
2008,12,29,11,40,38.60
2008,12,29,11,41,35.40
2008,12,29,11,42,27.40
2008,12,29,11,43,24.20
2008,12,29,11,44,29.00
2008,12,29,11,45,37.00
2008,12,29,11,46,32.20
2008,12,29,11,47,27.40
2008,12,29,11,48,70.80
2008,12,29,11,49,40.20
2008,12,29,11,50,24.20
2008,12,29,11,51,30.60
2008,12,29,11,52,25.70
2008,12,29,11,53,41.80
2008,12,29,11,54,43.50
2008,12,29,11,55,20.90
2008,12,29,11,56,24.20
2008,12,29,11,57,43.50
2008,12,29,11,58,38.60
2008,12,29,11,59,24.20
2008,12,29,12,00,29.00
2008,12,29,12,01,35.40
2008,12,29,12,02,56.30
2008,12,29,12,03,59.50
2008,12,29,12,04,35.40
2008,12,29,12,05,22.50
2008,12,29,12,06,30.60
2008,12,29,12,07,32.20
2008,12,29,12,08,41.80
2008,12,29,12,09,29.00
2008,12,29,12,10,30.60
2008,12,29,12,11,45.10
2008,12,29,12,12,37.00
2008,12,29,12,13,43.50
2008,12,29,12,14,32.20
2008,12,29,12,15,40.20
2008,12,29,12,16,32.20
2008,12,29,12,17,53.10
2008,12,29,12,18,24.20
2008,12,29,12,19,32.20
2008,12,29,12,20,54.70
2008,12,29,12,21,46.70
2008,12,29,12,22,30.60
2008,12,29,12,23,49.90
2008,12,29,12,24,48.30
2008,12,29,12,25,20.90
2008,12,29,12,26,33.80
2008,12,29,12,27,27.40
2008,12,29,12,28,41.80
2008,12,29,12,29,24.20
2008,12,29,12,30,48.30
2008,12,29,12,31,37.00
2008,12,29,12,32,29.00
2008,12,29,12,33,25.70
2008,12,29,12,34,38.60
2008,12,29,12,35,43.50
2008,12,29,12,36,46.70
2008,12,29,12,37,29.00
2008,12,29,12,38,40.20
2008,12,29,12,39,43.50
2008,12,29,12,40,40.20
2008,12,29,12,41,40.20
2008,12,29,12,42,38.60
2008,12,29,12,43,48.30
2008,12,29,12,44,41.80
2008,12,29,12,45,25.70
2008,12,29,12,46,33.80
2008,12,29,12,47,41.80
2008,12,29,12,48,35.40
2008,12,29,12,49,27.40
2008,12,29,12,50,30.60
2008,12,29,12,51,29.00
2008,12,29,12,52,27.40
2008,12,29,12,53,48.30
2008,12,29,12,54,35.40
2008,12,29,12,55,30.60
2008,12,29,12,56,35.40
2008,12,29,12,57,32.20
2008,12,29,12,58,20.90
2008,12,29,12,59,17.70
2008,12,29,13,00,27.40
2008,12,29,13,01,37.00
2008,12,29,13,02,25.70
2008,12,29,13,03,41.80
2008,12,29,13,04,22.50
2008,12,29,13,05,22.50
2008,12,29,13,06,20.90
2008,12,29,13,07,35.40
2008,12,29,13,08,29.00
2008,12,29,13,09,25.70
2008,12,29,13,10,19.30
2008,12,29,13,11,27.40
2008,12,29,13,12,25.70
2008,12,29,13,13,20.90
2008,12,29,13,14,40.20
2008,12,29,13,15,43.50
2008,12,29,13,16,32.20
2008,12,29,13,17,41.80
2008,12,29,13,18,30.60
2008,12,29,13,19,24.20
2008,12,29,13,20,16.10
2008,12,29,13,21,27.40
2008,12,29,13,22,45.10
2008,12,29,13,23,45.10
2008,12,29,13,24,37.00
2008,12,29,13,25,33.80
2008,12,29,13,26,41.80
2008,12,29,13,27,30.60
2008,12,29,13,28,37.00
2008,12,29,13,29,29.00
2008,12,29,13,30,25.70
2008,12,29,13,31,33.80
2008,12,29,13,32,38.60
2008,12,29,13,33,29.00
2008,12,29,13,34,32.20
2008,12,29,13,35,35.40
2008,12,29,13,36,30.60
2008,12,29,13,37,22.50
2008,12,29,13,38,29.00
2008,12,29,13,39,40.20
2008,12,29,13,40,40.20
2008,12,29,13,41,20.90
2008,12,29,13,42,11.30
2008,12,29,13,43,19.30
2008,12,29,13,44,14.50
2008,12,29,13,45,32.20
2008,12,29,13,46,33.80
2008,12,29,13,47,32.20
2008,12,29,13,48,27.40
2008,12,29,13,49,19.30
2008,12,29,13,50,16.10
2008,12,29,13,51,19.30
2008,12,29,13,52,17.70
2008,12,29,13,53,17.70
2008,12,29,13,54,22.50
2008,12,29,13,55,14.50
2008,12,29,13,56,24.20
2008,12,29,13,57,16.10
2008,12,29,13,58,14.50
2008,12,29,13,59,24.20
2008,12,29,14,00,25.70
2008,12,29,14,01,14.50
2008,12,29,14,02,19.30
2008,12,29,14,03,20.90
2008,12,29,14,04,29.00
2008,12,29,14,05,14.50
2008,12,29,14,06,11.30
2008,12,29,14,07,20.90
2008,12,29,14,08,12.90
2008,12,29,14,09,22.50
2008,12,29,14,10,22.50
2008,12,29,14,11,22.50
2008,12,29,14,12,16.10
2008,12,29,14,13,24.20
2008,12,29,14,14,27.40
2008,12,29,14,15,22.50
2008,12,29,14,16,19.30
2008,12,29,14,17,29.00
2008,12,29,14,18,20.90
2008,12,29,14,19,24.20
2008,12,29,14,20,20.90
2008,12,29,14,21,24.20
2008,12,29,14,22,22.50
2008,12,29,14,23,25.70
2008,12,29,14,24,30.60
2008,12,29,14,25,20.90
2008,12,29,14,26,20.90
2008,12,29,14,27,14.50
2008,12,29,14,28,22.50
2008,12,29,14,29,11.30
2008,12,29,14,30,8.10
2008,12,29,14,31,11.30
2008,12,29,14,32,17.70
2008,12,29,14,33,17.70
2008,12,29,14,34,22.50
2008,12,29,14,35,6.40
2008,12,29,14,36,4.80
2008,12,29,14,37,11.30
2008,12,29,14,38,9.60
2008,12,29,14,39,4.80
2008,12,29,14,40,9.60
2008,12,29,14,41,8.10
2008,12,29,14,42,1.60
2008,12,29,14,43,6.40
2008,12,29,14,44,17.70
2008,12,29,14,45,11.30
2008,12,29,14,46,9.60
2008,12,29,14,47,8.10
2008,12,29,14,48,4.80
2008,12,29,14,49,1.60
2008,12,29,14,50,0.00
2008,12,29,14,51,6.40
2008,12,29,14,52,6.40
2008,12,29,14,53,0.00
2008,12,29,14,54,0.00
2008,12,29,14,55,1.60
2008,12,29,14,56,1.60
2008,12,29,14,57,11.30
2008,12,29,14,58,11.30
2008,12,29,14,59,16.10
2008,12,29,15,00,11.30
2008,12,29,15,01,9.60
2008,12,29,15,02,16.10
2008,12,29,15,03,11.30
2008,12,29,15,04,9.60
2008,12,29,15,05,9.60
2008,12,29,15,06,9.60
2008,12,29,15,07,9.60
2008,12,29,15,08,20.90
2008,12,29,15,09,17.70
2008,12,29,15,10,11.30
2008,12,29,15,11,9.60
2008,12,29,15,12,9.60
2008,12,29,15,13,8.10
2008,12,29,15,14,8.10
2008,12,29,15,15,25.70
2008,12,29,15,16,25.70
2008,12,29,15,17,14.50
2008,12,29,15,18,19.30
2008,12,29,15,19,17.70
2008,12,29,15,20,20.90
2008,12,29,15,21,25.70
2008,12,29,15,22,17.70
2008,12,29,15,23,16.10
2008,12,29,15,24,29.00
2008,12,29,15,25,17.70
2008,12,29,15,26,19.30
2008,12,29,15,27,25.70
2008,12,29,15,28,9.60
2008,12,29,15,29,3.20
2008,12,29,15,30,25.70
2008,12,29,15,31,35.40
2008,12,29,15,32,9.60
2008,12,29,15,33,16.10
2008,12,29,15,34,20.90
2008,12,29,15,35,17.70
2008,12,29,15,36,11.30
2008,12,29,15,37,9.60
2008,12,29,15,38,16.10
2008,12,29,15,39,8.10
2008,12,29,15,40,9.60
2008,12,29,15,41,22.50
2008,12,29,15,42,16.10
2008,12,29,15,43,20.90
2008,12,29,15,44,29.00
2008,12,29,15,45,14.50
2008,12,29,15,46,8.10
2008,12,29,15,47,14.50
2008,12,29,15,48,22.50
2008,12,29,15,49,17.70
2008,12,29,15,50,4.80
2008,12,29,15,51,8.10
2008,12,29,15,52,19.30
2008,12,29,15,53,14.50
2008,12,29,15,54,22.50
2008,12,29,15,55,8.10
2008,12,29,15,56,19.30
2008,12,29,15,57,8.10
2008,12,29,15,58,8.10
2008,12,29,15,59,11.30
2008,12,29,16,00,16.10
2008,12,29,16,01,24.20
2008,12,29,16,02,12.90
2008,12,29,16,03,9.60
2008,12,29,16,04,19.30
2008,12,29,16,05,22.50
2008,12,29,16,06,9.60
2008,12,29,16,07,8.10
2008,12,29,16,08,8.10
2008,12,29,16,09,4.80
2008,12,29,16,10,6.40
2008,12,29,16,11,6.40
2008,12,29,16,12,9.60
2008,12,29,16,13,6.40
2008,12,29,16,14,8.10
2008,12,29,16,15,17.70
2008,12,29,16,16,20.90
2008,12,29,16,17,8.10
2008,12,29,16,18,8.10
2008,12,29,16,19,6.40
2008,12,29,16,20,6.40
2008,12,29,16,21,8.10
2008,12,29,16,22,17.70
2008,12,29,16,23,17.70
2008,12,29,16,24,8.10
2008,12,29,16,25,16.10
2008,12,29,16,26,16.10
2008,12,29,16,27,24.20
2008,12,29,16,28,25.70
2008,12,29,16,29,19.30
2008,12,29,16,30,25.70
2008,12,29,16,31,14.50
2008,12,29,16,32,17.70
2008,12,29,16,33,9.60
2008,12,29,16,34,11.30
2008,12,29,16,35,14.50
2008,12,29,16,36,8.10
2008,12,29,16,37,16.10
2008,12,29,16,38,19.30
2008,12,29,16,39,20.90
2008,12,29,16,40,22.50
2008,12,29,16,41,14.50
2008,12,29,16,42,4.80
2008,12,29,16,43,4.80
2008,12,29,16,44,16.10
2008,12,29,16,45,9.60
2008,12,29,16,46,9.60
2008,12,29,16,47,9.60
2008,12,29,16,48,37.00
2008,12,29,16,49,30.60
2008,12,29,16,50,25.70
2008,12,29,16,51,22.50
2008,12,29,16,52,16.10
2008,12,29,16,53,8.10
2008,12,29,16,54,8.10
2008,12,29,16,55,8.10
2008,12,29,16,56,17.70
2008,12,29,16,57,20.90
2008,12,29,16,58,16.10
2008,12,29,16,59,19.30
2008,12,29,17,00,9.60
2008,12,29,17,01,14.50
2008,12,29,17,02,11.30
2008,12,29,17,03,11.30
2008,12,29,17,04,8.10
2008,12,29,17,05,11.30
2008,12,29,17,06,4.80
2008,12,29,17,07,11.30
2008,12,29,17,08,14.50
2008,12,29,17,09,4.80
2008,12,29,17,10,6.40
2008,12,29,17,11,3.20
2008,12,29,17,12,6.40
2008,12,29,17,13,1.60
2008,12,29,17,14,14.50
2008,12,29,17,15,11.30
2008,12,29,17,16,4.80
2008,12,29,17,17,6.40
2008,12,29,17,18,6.40
2008,12,29,17,19,8.10
2008,12,29,17,20,11.30
2008,12,29,17,21,8.10
2008,12,29,17,22,11.30
2008,12,29,17,23,12.90
2008,12,29,17,24,6.40
2008,12,29,17,25,9.60
2008,12,29,17,26,8.10
2008,12,29,17,27,14.50
2008,12,29,17,28,12.90
2008,12,29,17,29,3.20
2008,12,29,17,30,19.30
2008,12,29,17,31,17.70
2008,12,29,17,32,20.90
2008,12,29,17,33,20.90
2008,12,29,17,34,24.20
2008,12,29,17,35,20.90
2008,12,29,17,36,6.40
2008,12,29,17,37,6.40
2008,12,29,17,38,11.30
2008,12,29,17,39,11.30
2008,12,29,17,40,16.10
2008,12,29,17,41,16.10
2008,12,29,17,42,17.70
2008,12,29,17,43,14.50
2008,12,29,17,44,16.10
2008,12,29,17,45,12.90
2008,12,29,17,46,16.10
2008,12,29,17,47,8.10
2008,12,29,17,48,6.40
2008,12,29,17,49,6.40
2008,12,29,17,50,14.50
2008,12,29,17,51,9.60
2008,12,29,17,52,22.50
2008,12,29,17,53,9.60
2008,12,29,17,54,12.90
2008,12,29,17,55,14.50
2008,12,29,17,56,4.80
2008,12,29,17,57,4.80
2008,12,29,17,58,17.70
2008,12,29,17,59,16.10
2008,12,29,18,00,17.70
2008,12,29,18,01,14.50
2008,12,29,18,02,6.40
2008,12,29,18,03,11.30
2008,12,29,18,04,17.70
2008,12,29,18,05,9.60
2008,12,29,18,06,20.90
2008,12,29,18,07,20.90
2008,12,29,18,08,16.10
2008,12,29,18,09,4.80
2008,12,29,18,10,12.90
2008,12,29,18,11,20.90
2008,12,29,18,12,14.50
2008,12,29,18,13,16.10
2008,12,29,18,14,8.10
2008,12,29,18,15,16.10
2008,12,29,18,16,6.40
2008,12,29,18,17,11.30
2008,12,29,18,18,14.50
2008,12,29,18,19,6.40
2008,12,29,18,20,6.40
2008,12,29,18,21,8.10
2008,12,29,18,22,4.80
2008,12,29,18,23,3.20
2008,12,29,18,24,1.60
2008,12,29,18,25,6.40
2008,12,29,18,26,6.40
2008,12,29,18,27,3.20
2008,12,29,18,28,4.80
2008,12,29,18,29,6.40
2008,12,29,18,30,1.60
2008,12,29,18,31,6.40
2008,12,29,18,32,8.10
2008,12,29,18,33,9.60
2008,12,29,18,34,6.40
2008,12,29,18,35,9.60
2008,12,29,18,36,1.60
2008,12,29,18,37,3.20
2008,12,29,18,38,8.10
2008,12,29,18,39,6.40
2008,12,29,18,40,3.20
2008,12,29,18,41,6.40
2008,12,29,18,42,3.20
2008,12,29,18,43,4.80
2008,12,29,18,44,4.80
2008,12,29,18,45,14.50
2008,12,29,18,46,8.10